Location: Vihti�l�
(61.3833°N, 23.0667°E)
Time: 05:04:31
(UTC+00:00)

ERBS - Pass Details

Date: 29 November 2020
Orbit: 403 x 423 km, 57.0° (Epoch: 22 January)

Event Time Altitude Azimuth Distance (km) Brightness Sun altitude
Exits shadow 04:40:38 22° 228° (SW) 978 3.8 -16.0°
Maximum altitude 04:42:19 37° 174° (S) 661 3.4 -15.8°
Drops below altitude 10° 04:45:26 10° 105° (ESE) 1,499 6.4 -15.4°
Sets 04:47:37 0° 97° (E) 2,368 7.8 -15.2°
